Flag Weather past 2 weeks in Udon Thani, Thailand

Now
77 °F

Passing clouds.


Feels Like: 79 °F
Forecast: 72 / 90 °F
Wind: No wind

Location: Udon Thani Airport

Current Time: Nov 28, 2014 at 12:34:58 AM

Latest Report: Nov 27, 2014 at 9:00 PM


Visibility: N/A

Pressure: 29.86 "Hg

Humidity: 74%

Dew point: 68 °F

Location of Udon ThaniLocation

Historic Weather in Udon Thani — Graph

°F

Udon Thani temperature yesterday

Maximum temperature yesterday: 91 °F (at 3:00 PM)
Minimum temperature yesterday: 70 °F (at 6:00 AM)
Average temperature yesterday: 83 °F

Past Weeks' High & Low Weather Summary

 TemperatureHumidityPressure
High91 °F (Nov 27, 3:00 PM)100% (Nov 21, 6:00 AM)30.12 "Hg (Nov 21, 6:00 AM)
Low63 °F (Nov 19, 6:00 AM)38% (Nov 24, 2:00 PM)29.74 "Hg (Nov 26, 3:00 PM)
Average80 °F63%29.93 "Hg
* Reported Nov 12 9:00 PM — Nov 27 9:00 PM, Udon Thani, Weather by CustomWeather, © 2014

Note: Actual official high and low records may vary slightly from our data, if they occured in-between our weather recording intervals... More about our weather records

Advertising

Udon Thani weather history for previous 24 hours

 ConditionsComfort  
Time TempWeatherWind HumidityBarometerVisibility
9:00 PM
Nov 27
77 °FPassing clouds.No wind74%29.86 "HgN/A
8:00 PM81 °FPassing clouds.2 mph66%29.83 "HgN/A
7:00 PM84 °FPassing clouds.3 mph58%29.80 "HgN/A
6:00 PM84 °FPassing clouds.3 mph62%29.80 "HgN/A
5:00 PM90 °FPassing clouds.5 mph49%29.77 "HgN/A
4:00 PM91 °FScattered clouds.6 mph46%29.77 "HgN/A
3:00 PM91 °FScattered clouds.6 mph49%29.77 "HgN/A
2:00 PM90 °FScattered clouds.6 mph49%29.80 "HgN/A
1:00 PM90 °FScattered clouds.6 mph52%29.83 "HgN/A
12:00 PM90 °FPassing clouds.3 mph52%29.86 "HgN/A
11:00 AM86 °FSunny.3 mph62%29.92 "Hg10 mi
10:00 AM84 °FSunny.3 mph66%29.92 "Hg10 mi
9:00 AM81 °FSunny.3 mph66%29.92 "Hg10 mi
8:00 AM75 °FClear.2 mph83%29.89 "Hg4 mi
7:00 AM70 °FFog.5 mph100%29.89 "Hg3 mi
6:00 AM70 °FFog.5 mph94%29.86 "Hg3 mi
Weather by CustomWeather, © 2014

See weather overviewHow to use our weather pages